CW0214 Weather Reports


time (UTC)temp
C
wind
direction
speed
KPH
gust
KPH
rain 1hr
cm
rain 24hr
cm
rain mn
cm
humidity
%
barometer
mb
20260508033404 12 87 1.6 4.8 0.00 0.00 0.00 83 1010.0
20260508032905 12 87 0.0 0.0 0.00 0.00 0.00 83 1009.9
20260508032405 12 87 1.6 8.0 0.00 0.00 0.00 83 1010.0
20260508031905 12 101 1.6 8.0 0.00 0.00 0.00 83 1010.0
20260508031405 12 101 0.0 4.8 0.00 0.00 0.00 83 1010.0
20260508030905 12 101 1.6 4.8 0.00 0.00 0.00 83 1010.0
20260508030405 12 101 3.2 4.8 0.00 0.00 0.00 83 1010.1
20260508025905 12 101 3.2 4.8 0.00 0.00 0.00 82 1010.1
20260508025404 12 103 0.0 1.6 0.00 0.00 0.00 82 1010.2
20260508024905 12 103 3.2 9.7 0.00 0.00 0.00 82 1010.2
20260508024404 13 112 4.8 8.0 0.00 0.00 0.00 82 1010.2
20260508023904 13 70 3.2 8.0 0.00 0.00 0.00 82 1010.2
20260508023405 13 92 1.6 8.0 0.00 0.00 0.00 82 1010.2
20260508022905 13 92 4.8 12.9 0.00 0.00 0.00 82 1010.2
20260508021404 13 67 3.2 4.8 0.00 0.00 0.00 82 1010.2
20260508020904 13 85 4.8 9.7 0.00 0.00 0.00 81 1010.3
20260508015904 13 86 4.8 11.3 0.00 0.00 0.00 81 1010.4
20260508014904 13 99 1.6 8.0 0.00 0.00 0.00 81 1010.3
20260508014404 13 99 0.0 0.0 0.00 0.00 0.00 81 1010.5
20260508013905 13 99 0.0 1.6 0.00 0.00 0.00 81 1010.6
20260508013404 13 99 1.6 4.8 0.00 0.00 0.00 81 1010.7
20260508012905 13 99 0.0 1.6 0.00 0.00 0.00 81 1010.6
20260508012404 13 99 0.0 8.0 0.00 0.00 0.00 80 1010.5
20260508011404 13 99 1.6 4.8 0.00 0.00 0.00 81 1010.6
20260508010905 13 99 0.0 1.6 0.00 0.00 0.00 80 1010.6
20260508005904 13 99 0.0 0.0 0.00 0.00 0.00 80 1010.6
20260508004905 13 99 0.0 0.0 0.00 0.00 0.00 80 1010.5
20260508003904 13 144 0.0 0.0 0.00 0.00 0.00 80 1010.7
20260508003404 13 144 0.0 0.0 0.00 0.00 0.00 80 1010.8
20260508002405 13 144 0.0 0.0 0.00 0.00 0.00 79 1010.9
20260508001904 13 144 0.0 0.0 0.00 0.00 0.00 79 1011.0
20260508001405 13 144 0.0 0.0 0.00 0.00 0.00 79 1011.0
20260508000904 13 144 0.0 0.0 0.00 0.00 0.00 79 1011.1
20260508000405 13 144 0.0 0.0 0.00 0.00 0.00 79 1011.0
20260507235905 13 144 0.0 0.0 0.00 0.00 0.00 79 1011.1
20260507235404 13 144 0.0 0.0 0.00 0.00 0.00 79 1011.2
20260507234905 13 144 1.6 8.0 0.00 0.00 0.00 79 1011.2
20260507234404 13 167 0.0 0.0 0.00 0.00 0.00 79 1011.2
20260507233904 13 167 0.0 0.0 0.00 0.00 0.00 79 1011.2
20260507233405 13 167 0.0 0.0 0.00 0.00 0.00 78 1011.3
20260507232904 13 167 0.0 0.0 0.00 0.00 0.00 78 1011.2
20260507232404 13 167 1.6 8.0 0.00 0.00 0.00 78 1011.3
20260507231904 13 137 1.6 8.0 0.00 0.00 0.00 78 1011.4
20260507231405 13 119 1.6 8.0 0.00 0.00 0.00 77 1011.4
20260507230904 13 156 1.6 14.5 0.00 0.00 0.00 77 1011.4
20260507230404 13 107 0.0 4.8 0.00 0.00 0.00 77 1011.5
20260507225904 13 107 3.2 9.7 0.00 0.00 0.00 77 1011.4
20260507225404 13 102 0.0 8.0 0.00 0.00 0.00 77 1011.6
20260507224904 13 102 4.8 9.7 0.00 0.00 0.00 77 1011.6
20260507224404 13 118 1.6 12.9 0.00 0.00 0.00 77 1011.6
20260507223904 13 131 1.6 8.0 0.00 0.00 0.00 76 1011.7
20260507222904 13 103 0.0 3.2 0.00 0.00 0.00 76 1011.9
20260507222404 14 106 1.6 8.0 0.00 0.00 0.00 76 1011.9
20260507221906 14 155 1.6 9.7 0.00 0.00 0.00 76 1011.8
20260507221405 14 87 3.2 9.7 0.00 0.00 0.00 75 1011.7
20260507220904 14 133 3.2 8.0 0.00 0.00 0.00 75 1011.7
20260507220404 14 88 0.0 11.3 0.00 0.00 0.00 75 1011.7
20260507215905 14 172 1.6 8.0 0.00 0.00 0.00 75 1011.7
20260507215404 14 139 4.8 11.3 0.00 0.00 0.00 74 1011.7
20260507214904 14 155 3.2 8.0 0.00 0.00 0.00 74 1011.7
20260507214404 14 149 4.8 12.9 0.00 0.00 0.00 74 1011.7
20260507213905 14 126 4.8 12.9 0.00 0.00 0.00 74 1011.7
20260507213404 14 127 1.6 16.1 0.00 0.00 0.00 74 1011.7
20260507212905 14 115 1.6 14.5 0.00 0.00 0.00 74 1011.7
20260507211904 14 44 0.0 4.8 0.00 0.00 0.00 73 1011.8
20260507211404 14 44 1.6 9.7 0.00 0.00 0.00 72 1011.8
20260507210905 14 44 0.0 8.0 0.00 0.00 0.00 72 1011.8
20260507210404 15 44 0.0 9.7 0.00 0.00 0.00 72 1011.8
20260507205905 15 43 0.0 0.0 0.00 0.00 0.00 71 1011.8
20260507205405 15 43 1.6 9.7 0.00 0.00 0.00 71 1011.7
20260507204904 15 83 1.6 11.3 0.00 0.00 0.00 71 1011.6
20260507203904 15 52 1.6 9.7 0.00 0.00 0.00 69 1011.6
20260507203404 15 128 0.0 4.8 0.00 0.00 0.00 69 1011.5
20260507202904 15 152 3.2 11.3 0.00 0.00 0.00 68 1011.4
20260507201904 15 15 0.0 8.0 0.00 0.00 0.00 67 1011.2
20260507201405 15 109 0.0 8.0 0.00 0.00 0.00 67 1011.2
20260507200905 15 62 1.6 9.7 0.00 0.00 0.00 67 1011.1
20260507194904 15 101 0.0 9.7 0.00 0.00 0.00 65 1011.0
20260507193904 16 102 1.6 9.7 0.00 0.00 0.00 65 1010.9
20260507192905 16 49 0.0 12.9 0.00 0.00 0.00 64 1010.9
20260507192405 16 118 4.8 19.3 0.00 0.00 0.00 64 1010.9
20260507191406 16 117 4.8 14.5 0.00 0.00 0.00 63 1010.7
20260507190906 16 99 4.8 16.1 0.00 0.00 0.00 63 1010.6
20260507185906 16 165 4.8 14.5 0.00 0.00 0.00 62 1010.6
20260507185406 16 84 3.2 19.3 0.00 0.00 0.00 62 1010.6
20260507184905 17 141 6.4 29.0 0.00 0.00 0.00 61 1010.5
20260507184405 17 60 3.2 14.5 0.00 0.00 0.00 61 1010.3
20260507183406 17 144 6.4 22.5 0.00 0.00 0.00 61 1010.1
20260507182905 17 102 8.0 24.1 0.00 0.00 0.00 61 1010.0
20260507182405 17 110 8.0 20.9 0.00 0.00 0.00 60 1010.0
20260507181905 18 122 8.0 20.9 0.00 0.00 0.00 59 1009.9
20260507181405 18 78 3.2 24.1 0.00 0.00 0.00 59 1009.7
20260507180905 18 220 4.8 19.3 0.00 0.00 0.00 58 1009.7
20260507180406 18 91 3.2 14.5 0.00 0.00 0.00 58 1009.6
20260507175905 18 148 6.4 20.9 0.00 0.00 0.00 57 1009.5
20260507175405 19 71 1.6 19.3 0.00 0.00 0.00 56 1009.6
20260507174405 19 70 9.7 20.9 0.00 0.00 0.00 55 1009.5
20260507173906 20 101 3.2 16.1 0.00 0.00 0.00 54 1009.5
20260507173406 20 156 3.2 19.3 0.00 0.00 0.00 54 1009.4
20260507172905 20 123 9.7 22.5 0.00 0.00 0.00 53 1009.4
20260507172405 20 69 1.6 19.3 0.00 0.00 0.00 52 1009.4
20260507171906 21 134 3.2 19.3 0.00 0.00 0.00 51 1009.3
20260507171405 21 100 11.3 20.9 0.00 0.00 0.00 50 1009.3
20260507170906 21 146 9.7 20.9 0.00 0.00 0.00 49 1009.3
20260507170405 21 102 3.2 20.9 0.00 0.00 0.00 48 1009.2
20260507165905 21 91 9.7 19.3 0.00 0.00 0.00 47 1009.2
20260507163905 21 89 4.8 16.1 0.00 0.00 0.00 48 1009.2
20260507163405 21 92 3.2 14.5 0.00 0.00 0.00 47 1009.2
20260507162905 21 96 4.8 24.1 0.00 0.00 0.00 45 1009.2
20260507162405 22 110 8.0 20.9 0.00 0.00 0.00 42 1009.2
20260507161905 22 93 3.2 16.1 0.00 0.00 0.00 43 1009.2
20260507161405 21 101 1.6 8.0 0.00 0.00 0.00 43 1009.1
20260507160905 21 126 8.0 16.1 0.00 0.00 0.00 42 1009.1
20260507160405 22 58 8.0 20.9 0.00 0.00 0.00 42 1009.3
20260507155905 22 155 9.7 20.9 0.00 0.00 0.00 41 1009.3
20260507155405 22 66 11.3 20.9 0.00 0.00 0.00 42 1009.3
20260507154906 22 144 6.4 20.9 0.00 0.00 0.00 40 1009.5
20260507154407 22 123 11.3 20.9 0.00 0.00 0.00 41 1009.5
20260507153905 22 126 1.6 9.7 0.00 0.00 0.00 42 1009.5
20260507153405 22 101 6.4 19.3 0.00 0.00 0.00 40 1009.6
20260507152405 22 75 1.6 19.3 0.00 0.00 0.00 41 1009.6
20260507150905 21 127 3.2 16.1 0.00 0.00 0.00 43 1009.6
20260507145405 22 112 3.2 19.3 0.00 0.00 0.00 43 1009.9
20260507144905 21 41 4.8 19.3 0.00 0.00 0.00 44 1009.9
20260507144405 21 96 4.8 19.3 0.00 0.00 0.00 44 1010.1
20260507143905 21 89 3.2 22.5 0.00 0.00 0.00 43 1010.2
20260507143405 21 81 6.4 19.3 0.00 0.00 0.00 44 1010.3
20260507142905 21 80 6.4 19.3 0.00 0.00 0.00 42 1010.3
20260507142404 22 80 3.2 20.9 0.00 0.00 0.00 42 1010.3
20260507141905 22 64 6.4 19.3 0.00 0.00 0.00 42 1010.4
20260507141405 21 55 1.6 19.3 0.00 0.00 0.00 44 1010.4
20260507140905 22 154 0.0 9.7 0.00 0.00 0.00 42 1010.4
20260507140406 22 111 1.6 11.3 0.00 0.00 0.00 44 1010.4
20260507135906 21 92 3.2 14.5 0.00 0.00 0.00 44 1010.4
20260507135405 21 78 1.6 8.0 0.00 0.00 0.00 42 1010.4
20260507134905 22 54 8.0 20.9 0.00 0.00 0.00 41 1010.4
20260507134405 22 38 3.2 16.1 0.00 0.00 0.00 42 1010.4
20260507133405 22 93 1.6 8.0 0.00 0.00 0.00 42 1010.4
20260507132905 22 118 4.8 22.5 0.00 0.00 0.00 42 1010.6
20260507132405 21 52 4.8 20.9 0.00 0.00 0.00 44 1010.5
20260507131906 21 114 8.0 14.5 0.00 0.00 0.00 44 1010.5
20260507130905 21 91 0.0 12.9 0.00 0.00 0.00 45 1010.6
20260507130405 21 108 9.7 19.3 0.00 0.00 0.00 46 1010.8
20260507125905 21 89 8.0 19.3 0.00 0.00 0.00 45 1010.8
20260507125404 21 83 4.8 22.5 0.00 0.00 0.00 44 1010.8
20260507124905 21 117 6.4 16.1 0.00 0.00 0.00 44 1010.9
20260507124405 21 87 3.2 9.7 0.00 0.00 0.00 46 1010.8
20260507123405 21 111 9.7 19.3 0.00 0.00 0.00 45 1010.9
20260507122405 20 11 9.7 19.3 0.00 0.00 0.00 46 1011.1
20260507121905 21 22 6.4 16.1 0.00 0.00 0.00 46 1011.2
20260507121405 21 28 3.2 22.5 0.00 0.00 0.00 44 1011.3
20260507120904 21 147 6.4 24.1 0.00 0.00 0.00 44 1011.4
20260507120405 21 160 4.8 19.3 0.00 0.00 0.00 44 1011.5
20260507115905 21 104 4.8 19.3 0.00 0.00 0.00 44 1011.4
20260507115405 21 0 3.2 14.5 0.00 0.00 0.00 43 1011.5
20260507114905 21 119 4.8 16.1 0.00 0.00 0.00 45 1011.6
20260507114404 21 231 1.6 12.9 0.00 0.00 0.00 45 1011.6
20260507113905 21 124 0.0 16.1 0.00 0.00 0.00 47 1011.7
20260507112905 20 63 1.6 11.3 0.00 0.00 0.00 48 1011.6
20260507112405 20 98 8.0 19.3 0.00 0.00 0.00 48 1011.6
20260507111905 20 328 0.0 8.0 0.00 0.00 0.00 50 1011.6
20260507111405 20 98 0.0 11.3 0.00 0.00 0.00 53 1011.7
20260507110905 20 132 3.2 16.1 0.00 0.00 0.00 52 1011.7
20260507105905 20 75 0.0 16.1 0.00 0.00 0.00 50 1011.7
20260507105405 20 98 3.2 14.5 0.00 0.00 0.00 52 1011.7
20260507104905 20 135 6.4 16.1 0.00 0.00 0.00 52 1011.7
20260507104405 20 180 4.8 19.3 0.00 0.00 0.00 53 1011.7
20260507103905 20 75 0.0 14.5 0.00 0.00 0.00 53 1011.6
20260507103405 20 100 4.8 11.3 0.00 0.00 0.00 54 1011.6
20260507102905 19 127 3.2 20.9 0.00 0.00 0.00 54 1011.6
20260507102405 19 95 3.2 20.9 0.00 0.00 0.00 56 1011.6
20260507101405 19 157 8.0 20.9 0.00 0.00 0.00 56 1011.6
20260507100904 20 130 1.6 19.3 0.00 0.00 0.00 57 1011.6
20260507100405 20 97 4.8 12.9 0.00 0.00 0.00 58 1011.6
20260507095905 19 88 4.8 19.3 0.00 0.00 0.00 60 1011.6
20260507095405 19 129 1.6 19.3 0.00 0.00 0.00 61 1011.6
20260507094905 18 49 1.6 11.3 0.00 0.00 0.00 63 1011.5
20260507094405 18 145 3.2 16.1 0.00 0.00 0.00 63 1011.5
20260507093904 18 145 1.6 16.1 0.00 0.00 0.00 63 1011.5
20260507093405 18 96 3.2 12.9 0.00 0.00 0.00 64 1011.5
20260507092905 18 137 1.6 16.1 0.00 0.00 0.00 65 1011.5
20260507092405 17 279 0.0 11.3 0.00 0.00 0.00 68 1011.4
20260507091905 17 134 3.2 16.1 0.00 0.00 0.00 69 1011.5
20260507091405 17 135 3.2 8.0 0.00 0.00 0.00 70 1011.4
20260507090905 17 133 8.0 19.3 0.00 0.00 0.00 72 1011.5
20260507090405 16 119 0.0 19.3 0.00 0.00 0.00 73 1011.4
20260507085405 16 105 3.2 16.1 0.00 0.00 0.00 75 1011.5
20260507084404 16 128 1.6 12.9 0.00 0.00 0.00 76 1011.5
20260507083905 16 157 1.6 12.9 0.00 0.00 0.00 78 1011.5
20260507082905 15 152 4.8 16.1 0.00 0.00 0.00 79 1011.6
20260507082405 15 142 3.2 19.3 0.00 0.00 0.00 80 1011.5
20260507081905 15 162 1.6 19.3 0.00 0.00 0.00 80 1011.6
20260507081405 15 110 1.6 19.3 0.00 0.00 0.00 81 1011.5
20260507080905 15 120 3.2 12.9 0.00 0.00 0.00 82 1011.5
20260507080405 15 70 3.2 19.3 0.00 0.00 0.00 82 1011.4
20260507075905 15 133 1.6 12.9 0.00 0.00 0.00 82 1011.4
20260507075404 15 146 1.6 12.9 0.00 0.00 0.00 83 1011.3
20260507074905 14 84 1.6 14.5 0.00 0.00 0.00 84 1011.3
20260507074405 14 130 8.0 14.5 0.00 0.00 0.00 84 1011.2
20260507072905 14 44 1.6 14.5 0.00 0.00 0.00 85 1011.1
20260507072405 14 82 1.6 12.9 0.00 0.00 0.00 86 1011.0
20260507071905 13 158 1.6 12.9 0.00 0.00 0.00 86 1010.9
20260507071405 13 151 4.8 12.9 0.00 0.00 0.00 87 1010.8
20260507070905 13 128 4.8 12.9 0.00 0.00 0.00 88 1010.8
20260507070404 13 125 1.6 4.8 0.00 0.00 0.00 88 1010.8
20260507065905 13 125 0.0 0.0 0.00 0.00 0.00 89 1010.9
20260507064905 12 127 1.6 12.9 0.00 0.00 0.00 90 1010.8
20260507063904 12 161 0.0 1.6 0.00 0.00 0.00 91 1010.7
20260507063405 12 161 0.0 0.0 0.00 0.00 0.00 91 1010.7
20260507061905 12 111 0.0 0.0 0.00 0.00 0.00 91 1010.5
20260507061405 12 111 0.0 3.2 0.00 0.00 0.00 92 1010.4
20260507060905 12 111 0.0 0.0 0.00 0.00 0.00 92 1010.4
20260507060405 11 111 0.0 0.0 0.00 0.00 0.00 92 1010.3
20260507055905 11 111 0.0 9.7 0.00 0.00 0.00 91 1010.3
20260507054905 11 106 0.0 0.0 0.00 0.00 0.00 91 1010.2
20260507053905 11 106 0.0 0.0 0.00 0.00 0.00 91 1010.3
20260507052905 11 83 1.6 9.7 0.00 0.00 0.00 91 1010.3
20260507052407 11 77 1.6 9.7 0.00 0.00 0.00 91 1010.3
20260507051905 11 59 1.6 9.7 0.00 0.00 0.00 91 1010.2
20260507051405 11 82 3.2 12.9 0.00 0.00 0.00 91 1010.4
20260507050905 11 29 0.0 12.9 0.00 0.00 0.00 91 1010.4
20260507050405 11 75 3.2 11.3 0.00 0.00 0.00 91 1010.4
20260507045904 11 32 1.6 11.3 0.00 0.00 0.00 91 1010.4
20260507045404 11 69 4.8 12.9 0.00 0.00 0.00 91 1010.4
20260507044905 11 105 3.2 9.7 0.00 0.00 0.00 91 1010.5
20260507044405 11 54 3.2 9.7 0.00 0.00 0.00 91 1010.5
20260507043405 11 125 6.4 14.5 0.00 0.00 0.00 91 1010.4
20260507042904 11 96 3.2 14.5 0.00 0.00 0.00 91 1010.6
20260507042405 11 64 3.2 16.1 0.00 0.00 0.00 91 1010.5
20260507041905 11 110 3.2 9.7 0.00 0.00 0.00 91 1010.5
20260507041405 11 76 0.0 3.2 0.00 0.00 0.00 90 1010.6
20260507040905 11 99 3.2 11.3 0.00 0.00 0.00 90 1010.7
20260507040404 11 263 0.0 9.7 0.00 0.00 0.00 90 1010.7
20260507035905 11 96 1.6 9.7 0.00 0.00 0.00 90 1010.7
20260507035404 11 101 1.6 9.7 0.00 0.00 0.00 90 1010.8
20260507034405 12 18 0.0 9.7 0.00 0.00 0.00 90 1010.8
20260507033905 11 70 3.2 8.0 0.00 0.00 0.00 90 1010.9